Flag for U.S.A. Weather past 2 weeks in Shreveport, Louisiana, U.S.A.

Now
83 °F

More clouds than sun.


Feels Like: 88 °F
Forecast: 72 / 88 °F
Wind: 8 mph from South

Location: Shreveport Regional Airport

Current Time: Sep 1, 2015 at 8:31:01 PM

Latest Report: Sep 1, 2015 at 7:56 PM


Visibility: 10 mi

Pressure: 30.01 "Hg

Humidity: 70%

Dew point: 72 °F

Location of ShreveportLocation

Historic Weather in Shreveport — Graph

°F

Shreveport temperature yesterday

Maximum temperature yesterday: 92 °F (at 2:56 PM)
Minimum temperature yesterday: 72 °F (at 4:56 AM)
Average temperature yesterday: 81 °F

Past Weeks' High & Low Weather Summary

 TemperatureHumidityPressure
High96 °F (Aug 18, 3:56 PM)100% (Aug 18, 4:56 AM)30.15 "Hg (Aug 18, 4:56 AM)
Low63 °F (Aug 28, 6:56 AM)26% (Aug 28, 4:56 PM)29.76 "Hg (Aug 18, 6:56 PM)
Average80 °F70%29.98 "Hg
* Reported Aug 17 6:56 PM — Sep 1 6:56 PM, Shreveport, Weather by CustomWeather, © 2015

Note: Actual official high and low records may vary slightly from our data, if they occured in-between our weather recording intervals... More about our weather records

Advertising

Shreveport weather history for previous 24 hours

 ConditionsComfort  
Time TempWeatherWind HumidityBarometerVisibility
6:56 PM
Tue, Sep 1
86 °FMore clouds than sun.3 mph61%30.01 "Hg10 mi
5:56 PM87 °FMostly cloudy.6 mph59%30.00 "Hg10 mi
3:56 PM86 °FThunderstorms. More clouds than sun.3 mph59%30.01 "Hg10 mi
2:56 PM87 °FMore clouds than sun.3 mph57%30.03 "Hg10 mi
1:56 PM88 °FBroken clouds.6 mph57%30.03 "Hg10 mi
12:56 PM86 °FPartly sunny.9 mph61%30.06 "Hg10 mi
11:56 AM84 °FPartly sunny.6 mph65%30.07 "Hg10 mi
10:56 AM82 °FPartly sunny.6 mph70%30.09 "Hg10 mi
9:56 AM81 °FMostly cloudy.3 mph72%30.07 "Hg10 mi
8:56 AM78 °FMostly cloudy.No wind76%30.06 "Hg10 mi
7:56 AM77 °FMostly cloudy.No wind79%30.05 "Hg10 mi
6:56 AM73 °FMostly cloudy.3 mph84%30.03 "Hg10 mi
5:56 AM76 °FMostly cloudy.No wind77%30.02 "Hg10 mi
4:56 AM75 °FMostly cloudy.No wind79%30.02 "Hg10 mi
3:56 AM74 °FMostly cloudy.3 mph79%30.02 "Hg10 mi
2:56 AM74 °FMostly cloudy.5 mph76%30.02 "Hg10 mi
1:56 AM74 °FMostly cloudy.5 mph76%30.02 "Hg10 mi
12:56 AM77 °FMostly cloudy.6 mph66%30.02 "Hg10 mi
11:56 PM
Mon, Aug 31
75 °FMostly cloudy.8 mph71%30.01 "Hg10 mi
9:56 PM77 °FPassing clouds.No wind66%29.99 "Hg10 mi
8:56 PM79 °FPassing clouds.No wind65%29.98 "Hg10 mi
Weather by CustomWeather, © 2015

See weather overviewHow to use our weather pages